Terug naar catalogus

STTW-3

ActiefWetenschapGEO
NORAD 19710·PAYLOAD·🇨🇳 China

Gelanceerd Dec 22, 1988 vanaf Xichang Satellite Launch Center

Loading…

TLE

VersSource: Space-Track

Epoch: Sep 13, 2026, 22:40 UTC

1 19710U 88111A   26256.94494787  .00000117  00000-0  00000+0 0  9998
2 19710  14.0049 344.8888 0005001 196.5430 188.8153  1.00269094131735

Volg STTW-3 in realtime met AllMySat

Download on the App Store